Time,TemperatureF,DewpointF,PressureIn,WindDirection,WindDirectionDegrees,WindSpeedMPH,WindSpeedGustMPH,Humidity,HourlyPrecipIn,Conditions,Clouds,dailyrainin,SolarRadiationWatts/m^2,SoftwareType,DateUTC
2013-02-25 00:00:00,72.1,67.7,29.88,West,269,0.0,1.0,86,0.00,,BKN075,0.00,74.00,VWS V14.01,2013-02-25 05:00:00,
2013-02-25 00:05:00,72.0,67.6,29.88,West,269,0.0,1.0,86,0.00,,BKN075,0.00,74.00,VWS V14.01,2013-02-25 05:05:00,
2013-02-25 00:10:00,72.0,67.6,29.87,West,269,0.0,1.0,86,0.00,,BKN075,0.00,74.00,VWS V14.01,2013-02-25 05:10:00,
2013-02-25 00:15:00,72.0,67.6,29.87,West,269,1.0,2.0,86,0.00,,BKN075,0.00,74.00,VWS V14.01,2013-02-25 05:15:00,
2013-02-25 00:20:00,72.0,67.6,29.87,West,269,0.0,2.0,86,0.00,,BKN075,0.00,74.00,VWS V14.01,2013-02-25 05:20:00,
2013-02-25 00:25:00,71.9,67.5,29.89,West,269,0.0,2.0,86,0.00,,BKN075,0.00,74.00,VWS V14.01,2013-02-25 05:25:00,
2013-02-25 00:30:00,71.8,67.7,29.89,West,269,0.0,0.0,87,0.00,,BKN075,0.00,74.00,VWS V14.01,2013-02-25 05:30:00,
2013-02-25 00:35:00,71.7,67.6,29.89,West,269,0.0,1.0,87,0.00,,BKN075,0.00,74.00,VWS V14.01,2013-02-25 05:35:00,
2013-02-25 00:40:00,71.7,67.6,29.89,West,265,0.0,3.0,87,0.00,,BKN075,0.00,74.00,VWS V14.01,2013-02-25 05:40:00,
2013-02-25 00:45:00,71.6,67.2,29.88,West,265,0.0,0.0,86,0.00,,BKN075,0.00,74.00,VWS V14.01,2013-02-25 05:45:00,
2013-02-25 00:50:00,71.5,67.4,29.88,West,265,0.0,2.0,87,0.00,,BKN075,0.00,74.00,VWS V14.01,2013-02-25 05:50:00,
2013-02-25 00:55:00,71.4,67.3,29.88,West,265,0.0,1.0,87,0.00,,BKN075,0.00,74.00,VWS V14.01,2013-02-25 05:55:00,
2013-02-25 01:00:00,71.3,67.2,29.88,West,265,0.0,1.0,87,0.00,,BKN075,0.00,74.00,VWS V14.01,2013-02-25 06:00:00,
2013-02-25 01:05:00,71.2,67.1,29.88,West,265,0.0,1.0,87,0.00,,BKN075,0.00,74.00,VWS V14.01,2013-02-25 06:05:00,
2013-02-25 01:10:00,71.2,67.5,29.88,West,265,0.0,1.0,88,0.00,,BKN075,0.00,74.00,VWS V14.01,2013-02-25 06:10:00,
2013-02-25 01:15:00,71.0,67.3,29.88,West,265,0.0,0.0,88,0.00,,BKN075,0.00,74.00,VWS V14.01,2013-02-25 06:15:00,
2013-02-25 01:20:00,71.0,67.3,29.88,West,265,0.0,1.0,88,0.00,,BKN075,0.00,74.00,VWS V14.01,2013-02-25 06:20:00,
2013-02-25 01:25:00,71.0,67.3,29.88,West,265,0.0,1.0,88,0.00,,BKN075,0.00,74.00,VWS V14.01,2013-02-25 06:25:00,
2013-02-25 01:30:00,70.9,67.2,29.87,West,265,0.0,1.0,88,0.00,,BKN075,0.00,74.00,VWS V14.01,2013-02-25 06:30:00,
2013-02-25 01:35:00,70.8,67.1,29.87,West,265,0.0,0.0,88,0.00,,BKN075,0.00,74.00,VWS V14.01,2013-02-25 06:35:00,
2013-02-25 01:40:00,70.8,67.1,29.86,West,265,0.0,0.0,88,0.00,,BKN075,0.00,74.00,VWS V14.01,2013-02-25 06:40:00,
2013-02-25 01:45:00,70.8,67.4,29.86,West,264,0.0,0.0,89,0.00,,BKN075,0.00,74.00,VWS V14.01,2013-02-25 06:45:00,
2013-02-25 01:50:00,70.9,67.5,29.86,West,265,0.0,0.0,89,0.00,,BKN075,0.00,74.00,VWS V14.01,2013-02-25 06:50:00,
2013-02-25 01:55:00,70.8,67.4,29.86,West,264,0.0,0.0,89,0.00,,BKN075,0.00,74.00,VWS V14.01,2013-02-25 06:55:00,
2013-02-25 02:00:00,70.4,67.0,29.86,West,265,0.0,0.0,89,0.00,,BKN075,0.00,74.00,VWS V14.01,2013-02-25 07:00:00,
2013-02-25 02:05:00,70.6,67.2,29.86,West,265,0.0,0.0,89,0.00,,BKN075,0.00,74.00,VWS V14.01,2013-02-25 07:05:00,
2013-02-25 02:10:00,70.4,67.0,29.85,West,265,0.0,0.0,89,0.00,,BKN075,0.00,74.00,VWS V14.01,2013-02-25 07:10:00,
2013-02-25 02:15:00,70.6,67.5,29.84,West,265,0.0,1.0,90,0.00,,BKN075,0.00,74.00,VWS V14.01,2013-02-25 07:15:00,
2013-02-25 02:20:00,70.9,67.8,29.84,West,264,0.0,0.0,90,0.00,,BKN075,0.00,74.00,VWS V14.01,2013-02-25 07:20:00,
2013-02-25 02:25:00,70.8,67.7,29.84,West,265,0.0,0.0,90,0.00,,BKN075,0.00,74.00,VWS V14.01,2013-02-25 07:25:00,
2013-02-25 02:30:00,70.5,67.4,29.85,West,265,0.0,0.0,90,0.00,,BKN075,0.00,74.00,VWS V14.01,2013-02-25 07:30:00,
2013-02-25 02:35:00,70.4,67.3,29.85,West,265,0.0,0.0,90,0.00,,BKN075,0.00,74.00,VWS V14.01,2013-02-25 07:35:00,
2013-02-25 02:40:00,70.2,67.4,29.84,West,265,0.0,0.0,91,0.00,,BKN075,0.00,74.00,VWS V14.01,2013-02-25 07:40:00,
2013-02-25 02:45:00,70.3,67.6,29.84,West,265,0.0,0.0,91,0.00,,BKN075,0.00,74.00,VWS V14.01,2013-02-25 07:45:00,
2013-02-25 02:50:00,70.3,67.6,29.84,West,265,0.0,1.0,91,0.00,,BKN075,0.00,74.00,VWS V14.01,2013-02-25 07:50:00,
2013-02-25 02:55:00,70.3,67.6,29.84,West,265,0.0,0.0,91,0.00,,BKN075,0.00,74.00,VWS V14.01,2013-02-25 07:55:00,
2013-02-25 03:00:00,70.4,67.7,29.84,West,265,0.0,0.0,91,0.00,,BKN075,0.00,74.00,VWS V14.01,2013-02-25 08:00:00,
2013-02-25 03:05:00,70.3,67.6,29.84,West,265,0.0,1.0,91,0.00,,BKN075,0.00,74.00,VWS V14.01,2013-02-25 08:05:00,
2013-02-25 03:10:00,70.1,67.4,29.84,West,265,0.0,0.0,91,0.00,,BKN075,0.00,74.00,VWS V14.01,2013-02-25 08:10:00,
2013-02-25 03:15:00,70.1,67.4,29.83,West,265,0.0,1.0,91,0.00,,BKN075,0.00,74.00,VWS V14.01,2013-02-25 08:15:00,
2013-02-25 03:20:00,70.1,67.4,29.84,West,265,0.0,0.0,91,0.00,,BKN075,0.00,74.00,VWS V14.01,2013-02-25 08:20:00,
2013-02-25 03:25:00,70.0,67.6,29.84,West,265,0.0,0.0,92,0.00,,BKN075,0.00,74.00,VWS V14.01,2013-02-25 08:25:00,
2013-02-25 03:30:00,69.9,67.5,29.84,West,265,0.0,1.0,92,0.00,,BKN075,0.00,74.00,VWS V14.01,2013-02-25 08:30:00,
2013-02-25 03:35:00,69.9,67.5,29.84,West,264,0.0,0.0,92,0.00,,BKN075,0.00,74.00,VWS V14.01,2013-02-25 08:35:00,
2013-02-25 03:40:00,69.8,67.1,29.84,West,265,0.0,0.0,91,0.00,,BKN075,0.00,74.00,VWS V14.01,2013-02-25 08:40:00,
2013-02-25 03:45:00,69.6,67.2,29.84,West,265,0.0,0.0,92,0.00,,BKN075,0.00,74.00,VWS V14.01,2013-02-25 08:45:00,
2013-02-25 03:50:00,69.8,67.4,29.84,West,265,0.0,1.0,92,0.00,,BKN075,0.00,74.00,VWS V14.01,2013-02-25 08:50:00,
2013-02-25 03:55:00,69.7,67.3,29.84,West,265,0.0,0.0,92,0.00,,BKN075,0.00,74.00,VWS V14.01,2013-02-25 08:55:00,
2013-02-25 04:00:00,69.7,67.3,29.84,West,265,0.0,1.0,92,0.00,,BKN075,0.00,74.00,VWS V14.01,2013-02-25 09:00:00,
2013-02-25 04:05:00,69.7,67.3,29.84,West,264,0.0,0.0,92,0.00,,BKN075,0.00,74.00,VWS V14.01,2013-02-25 09:05:00,
2013-02-25 04:10:00,69.7,67.3,29.84,West,264,0.0,0.0,92,0.00,,BKN075,0.00,74.00,VWS V14.01,2013-02-25 09:10:00,
2013-02-25 04:15:00,69.8,67.4,29.83,West,265,0.0,0.0,92,0.00,,BKN075,0.00,74.00,VWS V14.01,2013-02-25 09:15:00,
2013-02-25 04:20:00,69.7,67.3,29.83,West,259,0.0,2.0,92,0.00,,BKN075,0.00,74.00,VWS V14.01,2013-02-25 09:20:00,
2013-02-25 04:25:00,69.7,67.3,29.84,WSW,258,0.0,1.0,92,0.00,,BKN075,0.00,74.00,VWS V14.01,2013-02-25 09:25:00,
2013-02-25 04:30:00,69.7,67.3,29.84,WSW,258,0.0,1.0,92,0.00,,BKN075,0.00,74.00,VWS V14.01,2013-02-25 09:30:00,
2013-02-25 04:35:00,69.8,67.4,29.84,West,259,0.0,0.0,92,0.00,,BKN075,0.00,74.00,VWS V14.01,2013-02-25 09:35:00,
2013-02-25 04:40:00,69.8,67.4,29.84,WSW,258,0.0,0.0,92,0.00,,BKN075,0.00,74.00,VWS V14.01,2013-02-25 09:40:00,
2013-02-25 04:45:00,69.9,67.5,29.84,West,259,0.0,1.0,92,0.00,,BKN075,0.00,74.00,VWS V14.01,2013-02-25 09:45:00,
2013-02-25 04:50:00,70.0,67.6,29.84,WSW,258,0.0,1.0,92,0.00,,BKN075,0.00,74.00,VWS V14.01,2013-02-25 09:50:00,
2013-02-25 04:55:00,69.9,67.2,29.84,West,259,0.0,1.0,91,0.00,,BKN075,0.00,74.00,VWS V14.01,2013-02-25 09:55:00,
2013-02-25 05:00:00,69.9,67.2,29.84,WSW,258,1.0,1.0,91,0.00,,BKN075,0.00,74.00,VWS V14.01,2013-02-25 10:00:00,
2013-02-25 05:05:00,70.0,67.3,29.83,WSW,257,0.0,2.0,91,0.00,,BKN075,0.00,74.00,VWS V14.01,2013-02-25 10:05:00,
2013-02-25 05:10:00,70.1,67.4,29.84,WSW,257,0.0,1.0,91,0.00,,BKN075,0.00,74.00,VWS V14.01,2013-02-25 10:10:00,
2013-02-25 05:15:00,70.1,67.4,29.84,WSW,257,0.0,0.0,91,0.00,,BKN075,0.00,74.00,VWS V14.01,2013-02-25 10:15:00,
2013-02-25 05:20:00,70.1,67.4,29.84,WSW,257,0.0,0.0,91,0.00,,BKN075,0.00,74.00,VWS V14.01,2013-02-25 10:20:00,
2013-02-25 05:25:00,70.1,67.4,29.84,WSW,257,0.0,0.0,91,0.00,,BKN075,0.00,74.00,VWS V14.01,2013-02-25 10:25:00,
2013-02-25 05:30:00,69.9,67.2,29.84,WSW,257,0.0,0.0,91,0.00,,BKN075,0.00,74.00,VWS V14.01,2013-02-25 10:30:00,
2013-02-25 05:35:00,69.8,67.4,29.84,WSW,257,0.0,0.0,92,0.00,,BKN075,0.00,74.00,VWS V14.01,2013-02-25 10:35:00,
2013-02-25 05:40:00,69.7,67.0,29.84,WSW,257,0.0,0.0,91,0.00,,BKN075,0.00,74.00,VWS V14.01,2013-02-25 10:40:00,
2013-02-25 05:45:00,69.5,67.1,29.84,WSW,257,0.0,0.0,92,0.00,,BKN075,0.00,74.00,VWS V14.01,2013-02-25 10:45:00,
2013-02-25 05:50:00,69.5,67.1,29.84,WSW,257,0.0,0.0,92,0.00,,BKN075,0.00,74.00,VWS V14.01,2013-02-25 10:50:00,
2013-02-25 05:55:00,69.6,67.2,29.84,WSW,257,0.0,0.0,92,0.00,,BKN075,0.00,74.00,VWS V14.01,2013-02-25 10:55:00,
2013-02-25 06:00:00,69.7,67.3,29.84,WSW,254,0.0,2.0,92,0.00,,BKN075,0.00,74.00,VWS V14.01,2013-02-25 11:00:00,
2013-02-25 06:05:00,69.7,67.3,29.84,WSW,253,0.0,1.0,92,0.00,,BKN075,0.00,74.00,VWS V14.01,2013-02-25 11:05:00,
2013-02-25 06:10:00,69.7,67.3,29.84,WSW,254,0.0,0.0,92,0.00,,BKN075,0.00,74.00,VWS V14.01,2013-02-25 11:10:00,
2013-02-25 06:15:00,69.6,67.2,29.84,WSW,254,0.0,1.0,92,0.00,,BKN075,0.00,74.00,VWS V14.01,2013-02-25 11:15:00,
2013-02-25 06:20:00,69.7,67.3,29.84,WSW,253,0.0,1.0,92,0.00,,BKN075,0.00,74.00,VWS V14.01,2013-02-25 11:20:00,
2013-02-25 06:25:00,69.6,67.2,29.84,WSW,253,0.0,1.0,92,0.00,,BKN075,0.00,74.00,VWS V14.01,2013-02-25 11:25:00,
2013-02-25 06:30:00,69.6,67.2,29.84,WSW,253,0.0,1.0,92,0.00,,BKN075,0.00,74.00,VWS V14.01,2013-02-25 11:30:00,
2013-02-25 06:35:00,69.7,67.3,29.84,WSW,253,0.0,0.0,92,0.00,,BKN075,0.00,74.00,VWS V14.01,2013-02-25 11:35:00,
2013-02-25 06:40:00,69.7,67.3,29.83,WSW,253,0.0,1.0,92,0.00,,BKN075,0.00,74.00,VWS V14.01,2013-02-25 11:40:00,
2013-02-25 06:45:00,69.7,67.3,29.84,WSW,253,0.0,1.0,92,0.00,,BKN075,0.00,76.00,VWS V14.01,2013-02-25 11:45:00,
2013-02-25 06:50:00,69.7,67.3,29.84,WSW,253,0.0,0.0,92,0.00,,BKN075,0.00,77.00,VWS V14.01,2013-02-25 11:50:00,
2013-02-25 06:54:00,69.7,67.3,29.84,WSW,254,0.0,0.0,92,0.00,,BKN075,0.00,83.00,VWS V14.01,2013-02-25 11:54:00,
2013-02-25 06:59:00,69.8,67.4,29.85,WSW,253,0.0,1.0,92,0.00,,BKN075,0.00,88.00,VWS V14.01,2013-02-25 11:59:00,
2013-02-25 07:04:00,70.1,67.7,29.85,WSW,254,0.0,1.0,92,0.00,,BKN075,0.00,93.00,VWS V14.01,2013-02-25 12:04:00,
2013-02-25 07:09:00,70.0,67.6,29.85,WSW,253,0.0,1.0,92,0.00,,FEW070,0.00,98.00,VWS V14.01,2013-02-25 12:09:00,
2013-02-25 07:14:00,70.1,67.7,29.85,WSW,253,0.0,0.0,92,0.00,,FEW070,0.00,107.00,VWS V14.01,2013-02-25 12:14:00,
2013-02-25 07:19:00,70.3,67.9,29.85,WSW,253,0.0,0.0,92,0.00,,FEW070,0.00,116.00,VWS V14.01,2013-02-25 12:19:00,
2013-02-25 07:24:00,70.5,68.4,29.85,WSW,254,0.0,0.0,93,0.00,,FEW070,0.00,125.00,VWS V14.01,2013-02-25 12:24:00,
2013-02-25 07:29:00,70.7,68.6,29.85,WSW,252,0.0,3.0,93,0.00,,FEW070,0.00,141.00,VWS V14.01,2013-02-25 12:29:00,
2013-02-25 07:34:00,71.1,69.0,29.85,WSW,251,0.0,1.0,93,0.00,,FEW070,0.00,181.00,VWS V14.01,2013-02-25 12:34:00,
2013-02-25 07:39:00,71.3,69.2,29.85,WSW,250,2.0,2.0,93,0.00,,FEW070,0.00,171.00,VWS V14.01,2013-02-25 12:39:00,
2013-02-25 07:44:00,71.6,69.5,29.85,WSW,250,0.0,1.0,93,0.00,,FEW070,0.00,162.00,VWS V14.01,2013-02-25 12:44:00,
2013-02-25 07:49:00,72.0,69.9,29.86,WSW,250,0.0,1.0,93,0.00,,FEW070,0.00,149.00,VWS V14.01,2013-02-25 12:49:00,
2013-02-25 07:54:00,72.1,70.0,29.86,WSW,250,0.0,1.0,93,0.00,,FEW070,0.00,142.00,VWS V14.01,2013-02-25 12:54:00,
2013-02-25 07:59:00,72.2,70.1,29.86,WSW,249,0.0,0.0,93,0.00,,FEW070,0.00,156.00,VWS V14.01,2013-02-25 12:59:00,
2013-02-25 08:04:00,72.5,70.1,29.86,WSW,249,0.0,0.0,92,0.00,,SCT060,0.00,178.00,VWS V14.01,2013-02-25 13:04:00,
2013-02-25 08:09:00,72.7,70.2,29.87,WSW,249,0.0,1.0,92,0.00,,SCT060,0.00,209.00,VWS V14.01,2013-02-25 13:09:00,
2013-02-25 08:15:00,73.1,70.6,29.87,WSW,249,1.0,2.0,92,0.00,,SCT060,0.00,213.00,VWS V14.01,2013-02-25 13:15:00,
2013-02-25 08:20:00,73.4,70.9,29.87,WSW,250,0.0,1.0,92,0.00,,SCT060,0.00,211.00,VWS V14.01,2013-02-25 13:20:00,
2013-02-25 08:25:00,73.8,71.3,29.88,WSW,249,0.0,1.0,92,0.00,,SCT060,0.00,202.00,VWS V14.01,2013-02-25 13:25:00,
2013-02-25 08:30:00,74.2,71.7,29.88,WSW,248,0.0,2.0,92,0.00,,SCT060,0.00,237.00,VWS V14.01,2013-02-25 13:30:00,
2013-02-25 08:35:00,74.7,71.9,29.88,WSW,244,2.0,3.0,91,0.00,,SCT060,0.00,258.00,VWS V14.01,2013-02-25 13:35:00,
2013-02-25 08:40:00,75.0,72.2,29.89,WSW,243,0.0,1.0,91,0.00,,SCT060,0.00,243.00,VWS V14.01,2013-02-25 13:40:00,
2013-02-25 08:45:00,75.2,72.1,29.88,WSW,243,0.0,2.0,90,0.00,,SCT060,0.00,244.00,VWS V14.01,2013-02-25 13:45:00,
2013-02-25 08:50:00,75.6,72.5,29.89,SW,234,0.0,1.0,90,0.00,,SCT060,0.00,281.00,VWS V14.01,2013-02-25 13:50:00,
2013-02-25 08:55:00,75.8,72.7,29.89,SSW,205,0.0,4.0,90,0.00,,SCT060,0.00,297.00,VWS V14.01,2013-02-25 13:55:00,
2013-02-25 09:00:00,75.9,72.4,29.88,South,173,0.0,4.0,89,0.00,,SCT060,0.00,346.00,VWS V14.01,2013-02-25 14:00:00,
2013-02-25 09:05:00,76.4,72.9,29.88,SSE,148,2.0,4.0,89,0.00,,SCT060,0.00,573.00,VWS V14.01,2013-02-25 14:05:00,
2013-02-25 09:10:00,77.3,73.1,29.88,South,177,2.0,4.0,87,0.00,,SCT060,0.00,357.00,VWS V14.01,2013-02-25 14:10:00,
2013-02-25 09:15:00,77.8,73.3,29.88,SE,139,1.0,7.0,86,0.00,,BKN050,0.00,339.00,VWS V14.01,2013-02-25 14:15:00,
2013-02-25 09:20:00,78.5,73.3,29.88,SSE,159,4.0,9.0,84,0.00,,BKN050,0.00,605.00,VWS V14.01,2013-02-25 14:20:00,
2013-02-25 09:25:00,78.5,72.6,29.88,SSE,159,1.0,9.0,82,0.00,,BKN050,0.00,295.00,VWS V14.01,2013-02-25 14:25:00,
2013-02-25 09:30:00,79.1,72.8,29.88,South,169,3.0,11.0,81,0.00,,BKN050,0.00,534.00,VWS V14.01,2013-02-25 14:30:00,
2013-02-25 09:35:00,80.2,73.1,29.88,SSE,159,10.0,12.0,79,0.00,,BKN050,0.00,612.00,VWS V14.01,2013-02-25 14:35:00,
2013-02-25 09:40:00,80.0,71.8,29.88,South,170,4.0,12.0,76,0.00,,BKN050,0.00,355.00,VWS V14.01,2013-02-25 14:40:00,
2013-02-25 09:45:00,80.1,71.9,29.88,South,185,5.0,11.0,76,0.00,,BKN050,0.00,290.00,VWS V14.01,2013-02-25 14:45:00,
2013-02-25 09:50:00,79.9,72.1,29.88,SSE,152,3.0,9.0,77,0.00,,BKN050,0.00,541.00,VWS V14.01,2013-02-25 14:50:00,
2013-02-25 09:55:00,80.5,72.2,29.88,SE,132,3.0,10.0,76,0.00,,BKN050,0.00,735.00,VWS V14.01,2013-02-25 14:55:00,
2013-02-25 10:00:00,81.2,72.5,29.87,SE,140,3.0,7.0,75,0.00,,BKN050,0.00,689.00,VWS V14.01,2013-02-25 15:00:00,
2013-02-25 10:05:00,80.9,72.2,29.87,SE,141,4.0,13.0,75,0.00,,BKN035,0.00,684.00,VWS V14.01,2013-02-25 15:05:00,
2013-02-25 10:10:00,80.7,71.7,29.87,SSE,154,7.0,14.0,74,0.00,,BKN035,0.00,802.00,VWS V14.01,2013-02-25 15:10:00,
2013-02-25 10:15:00,81.3,72.2,29.87,SSE,164,3.0,12.0,74,0.00,,BKN035,0.00,483.00,VWS V14.01,2013-02-25 15:15:00,
2013-02-25 10:20:00,81.4,72.7,29.88,SE,136,7.0,9.0,75,0.00,,BKN035,0.00,722.00,VWS V14.01,2013-02-25 15:20:00,
2013-02-25 10:25:00,81.4,72.3,29.88,South,179,4.0,11.0,74,0.00,,BKN035,0.00,352.00,VWS V14.01,2013-02-25 15:25:00,
2013-02-25 10:30:00,81.8,73.1,29.88,South,189,5.0,6.0,75,0.00,,BKN035,0.00,455.00,VWS V14.01,2013-02-25 15:30:00,
2013-02-25 10:35:00,82.0,72.1,29.87,ESE,115,6.0,11.0,72,0.00,,BKN035,0.00,742.00,VWS V14.01,2013-02-25 15:35:00,
2013-02-25 10:40:00,81.9,72.0,29.88,SSE,168,5.0,9.0,72,0.00,,BKN035,0.00,747.00,VWS V14.01,2013-02-25 15:40:00,
2013-02-25 10:45:00,82.0,72.1,29.88,South,186,3.0,6.0,72,0.00,,BKN035,0.00,306.00,VWS V14.01,2013-02-25 15:45:00,
2013-02-25 10:50:00,82.7,72.3,29.88,SE,130,2.0,10.0,71,0.00,,BKN035,0.00,837.00,VWS V14.01,2013-02-25 15:50:00,
2013-02-25 10:55:00,83.1,71.9,29.87,SSE,150,1.0,12.0,69,0.00,,SCT016,0.00,448.00,VWS V14.01,2013-02-25 15:55:00,
2013-02-25 11:00:00,82.7,71.1,29.87,South,190,3.0,9.0,68,0.00,,SCT016,0.00,483.00,VWS V14.01,2013-02-25 16:00:00,
2013-02-25 11:05:00,83.2,71.1,29.87,SSE,155,11.0,11.0,67,0.00,,SCT016,0.00,749.00,VWS V14.01,2013-02-25 16:05:00,
2013-02-25 11:10:00,83.1,71.4,29.86,SSE,158,5.0,11.0,68,0.00,,SCT016,0.00,791.00,VWS V14.01,2013-02-25 16:10:00,
2013-02-25 11:15:00,83.2,71.1,29.86,SE,129,9.0,10.0,67,0.00,,SCT016,0.00,299.00,VWS V14.01,2013-02-25 16:15:00,
2013-02-25 11:20:00,82.9,70.8,29.86,South,175,7.0,10.0,67,0.00,,SCT016,0.00,867.00,VWS V14.01,2013-02-25 16:20:00,
2013-02-25 11:25:00,83.7,70.7,29.85,SSE,150,2.0,13.0,65,0.00,,SCT016,0.00,814.00,VWS V14.01,2013-02-25 16:25:00,
2013-02-25 11:30:00,83.8,70.8,29.85,SSE,163,5.0,13.0,65,0.00,,SCT016,0.00,858.00,VWS V14.01,2013-02-25 16:30:00,
2013-02-25 11:35:00,84.1,71.1,29.85,SE,142,6.0,9.0,65,0.00,,SCT016,0.00,904.00,VWS V14.01,2013-02-25 16:35:00,
2013-02-25 11:40:00,84.2,71.6,29.85,SSE,159,3.0,11.0,66,0.00,,SCT016,0.00,373.00,VWS V14.01,2013-02-25 16:40:00,
2013-02-25 11:45:00,84.2,71.6,29.85,SE,146,5.0,5.0,66,0.00,,SCT016,0.00,301.00,VWS V14.01,2013-02-25 16:45:00,
2013-02-25 11:50:00,83.6,71.5,29.85,SE,142,11.0,14.0,67,0.00,,SCT016,0.00,330.00,VWS V14.01,2013-02-25 16:50:00,
2013-02-25 11:55:00,83.1,71.0,29.85,SE,133,4.0,8.0,67,0.00,,SCT016,0.00,308.00,VWS V14.01,2013-02-25 16:55:00,
2013-02-25 12:00:00,83.2,71.6,29.85,SSE,153,2.0,8.0,68,0.00,,SCT016,0.00,410.00,VWS V14.01,2013-02-25 17:00:00,
2013-02-25 12:05:00,84.6,70.2,29.84,SE,144,8.0,10.0,62,0.00,,SCT016,0.00,1007.00,VWS V14.01,2013-02-25 17:05:00,
2013-02-25 12:10:00,85.2,70.7,29.84,SE,140,6.0,14.0,62,0.00,,SCT016,0.00,879.00,VWS V14.01,2013-02-25 17:10:00,
2013-02-25 12:15:00,84.4,70.9,29.84,SSE,148,10.0,12.0,64,0.00,,SCT016,0.00,1055.00,VWS V14.01,2013-02-25 17:15:00,
2013-02-25 12:20:00,84.4,70.9,29.84,SE,124,10.0,15.0,64,0.00,,SCT016,0.00,708.00,VWS V14.01,2013-02-25 17:20:00,
2013-02-25 12:25:00,83.7,71.6,29.83,ESE,117,10.0,12.0,67,0.00,,SCT016,0.00,708.00,VWS V14.01,2013-02-25 17:25:00,
2013-02-25 12:30:00,83.9,70.9,29.83,SSE,150,5.0,19.0,65,0.00,,SCT016,0.00,881.00,VWS V14.01,2013-02-25 17:30:00,
2013-02-25 12:35:00,84.3,70.8,29.83,SSE,156,10.0,14.0,64,0.00,,SCT016,0.00,891.00,VWS V14.01,2013-02-25 17:35:00,
2013-02-25 12:40:00,84.7,71.2,29.82,SE,141,4.0,11.0,64,0.00,,SCT016,0.00,904.00,VWS V14.01,2013-02-25 17:40:00,
2013-02-25 12:45:00,84.8,71.3,29.82,SE,138,10.0,15.0,64,0.00,,SCT016,0.00,935.00,VWS V14.01,2013-02-25 17:45:00,
2013-02-25 12:50:00,84.4,70.9,29.82,SSE,150,11.0,15.0,64,0.00,,SCT016,0.00,420.00,VWS V14.01,2013-02-25 17:50:00,
2013-02-25 12:55:00,83.7,70.2,29.81,SE,129,3.0,13.0,64,0.00,,SCT016,0.00,422.00,VWS V14.01,2013-02-25 17:55:00,
2013-02-25 13:00:00,83.8,71.2,29.81,SSE,160,4.0,15.0,66,0.00,,SCT016,0.00,290.00,VWS V14.01,2013-02-25 18:00:00,
2013-02-25 13:05:00,83.4,70.9,29.81,SSE,151,4.0,10.0,66,0.00,,SCT016,0.00,229.00,VWS V14.01,2013-02-25 18:05:00,
2013-02-25 13:10:00,82.9,71.3,29.81,SE,138,10.0,12.0,68,0.00,,SCT016,0.00,221.00,VWS V14.01,2013-02-25 18:10:00,
2013-02-25 13:15:00,82.7,71.9,29.81,SE,144,5.0,12.0,70,0.00,,SCT020,0.00,192.00,VWS V14.01,2013-02-25 18:15:00,
2013-02-25 13:20:00,82.5,71.7,29.81,ESE,104,6.0,16.0,70,0.00,,SCT020,0.00,153.00,VWS V14.01,2013-02-25 18:20:00,
2013-02-25 13:25:00,82.0,71.7,29.81,SE,142,4.0,14.0,71,0.00,,SCT020,0.00,172.00,VWS V14.01,2013-02-25 18:25:00,
2013-02-25 13:30:00,81.8,71.5,29.81,SE,143,4.0,11.0,71,0.00,,SCT020,0.00,183.00,VWS V14.01,2013-02-25 18:30:00,
2013-02-25 13:35:00,81.4,71.9,29.81,SSE,168,6.0,13.0,73,0.00,,SCT020,0.00,234.00,VWS V14.01,2013-02-25 18:35:00,
2013-02-25 13:40:00,81.0,71.9,29.80,ESE,116,6.0,12.0,74,0.00,,SCT020,0.00,199.00,VWS V14.01,2013-02-25 18:40:00,
2013-02-25 13:45:00,80.8,71.7,29.80,SSE,157,5.0,14.0,74,0.00,,SCT020,0.00,185.00,VWS V14.01,2013-02-25 18:45:00,
2013-02-25 13:50:00,80.8,72.1,29.81,SE,128,4.0,8.0,75,0.01,,SCT020,0.01,142.00,VWS V14.01,2013-02-25 18:50:00,
2013-02-25 13:55:00,80.1,72.2,29.81,ESE,109,6.0,6.0,77,0.01,,SCT020,0.01,128.00,VWS V14.01,2013-02-25 18:55:00,
2013-02-25 14:00:00,79.7,72.2,29.80,SE,142,2.0,7.0,78,0.01,,SCT020,0.01,125.00,VWS V14.01,2013-02-25 19:00:00,
2013-02-25 14:05:00,79.6,71.8,29.80,SSE,148,12.0,15.0,77,0.01,,SCT040,0.01,139.00,VWS V14.01,2013-02-25 19:05:00,
2013-02-25 14:10:00,79.5,72.0,29.81,SE,138,9.0,14.0,78,0.01,,SCT040,0.01,200.00,VWS V14.01,2013-02-25 19:10:00,
2013-02-25 14:15:00,79.6,72.1,29.81,SSE,148,6.0,20.0,78,0.01,,SCT040,0.01,346.00,VWS V14.01,2013-02-25 19:15:00,
2013-02-25 14:20:00,79.6,72.1,29.80,SE,132,14.0,18.0,78,0.01,,SCT040,0.01,250.00,VWS V14.01,2013-02-25 19:20:00,
2013-02-25 14:25:00,79.1,71.7,29.81,SE,144,12.0,14.0,78,0.01,,SCT040,0.01,179.00,VWS V14.01,2013-02-25 19:25:00,
2013-02-25 14:30:00,78.7,71.6,29.80,SE,130,2.0,13.0,79,0.01,,SCT040,0.01,185.00,VWS V14.01,2013-02-25 19:30:00,
2013-02-25 14:35:00,78.5,71.4,29.80,SE,138,10.0,12.0,79,0.01,,SCT040,0.01,179.00,VWS V14.01,2013-02-25 19:35:00,
2013-02-25 14:40:00,78.4,71.7,29.80,ESE,116,3.0,12.0,80,0.01,,SCT040,0.01,162.00,VWS V14.01,2013-02-25 19:40:00,
2013-02-25 14:45:00,78.0,72.1,29.80,SE,132,3.0,7.0,82,0.01,,SCT040,0.01,149.00,VWS V14.01,2013-02-25 19:45:00,
2013-02-25 14:50:00,77.7,72.1,29.80,ESE,115,4.0,9.0,83,0.01,,SCT040,0.01,169.00,VWS V14.01,2013-02-25 19:50:00,
2013-02-25 14:55:00,77.8,72.2,29.80,SE,142,14.0,14.0,83,0.00,,SCT040,0.01,172.00,VWS V14.01,2013-02-25 19:55:00,
2013-02-25 15:00:00,77.8,72.2,29.80,ESE,123,5.0,10.0,83,0.00,,SCT040,0.01,137.00,VWS V14.01,2013-02-25 20:00:00,
2013-02-25 15:05:00,77.8,72.2,29.80,SE,130,2.0,9.0,83,0.00,,SCT040,0.01,111.00,VWS V14.01,2013-02-25 20:05:00,
2013-02-25 15:10:00,77.7,72.1,29.80,ESE,113,2.0,6.0,83,0.01,,SCT040,0.02,109.00,VWS V14.01,2013-02-25 20:10:00,
2013-02-25 15:15:00,77.5,71.9,29.80,East,95,5.0,9.0,83,0.01,,BKN040,0.02,237.00,VWS V14.01,2013-02-25 20:15:00,
2013-02-25 15:20:00,77.9,72.3,29.79,ESE,118,5.0,10.0,83,0.01,,BKN040,0.02,376.00,VWS V14.01,2013-02-25 20:20:00,
2013-02-25 15:25:00,78.4,72.4,29.79,SE,124,6.0,10.0,82,0.01,,BKN040,0.02,244.00,VWS V14.01,2013-02-25 20:25:00,
2013-02-25 15:30:00,78.5,72.6,29.79,SE,139,1.0,15.0,82,0.01,,BKN040,0.02,155.00,VWS V14.01,2013-02-25 20:30:00,
2013-02-25 15:35:00,78.2,72.3,29.80,SE,138,13.0,13.0,82,0.03,,BKN040,0.04,123.00,VWS V14.01,2013-02-25 20:35:00,
2013-02-25 15:40:00,77.4,72.2,29.79,SE,141,0.0,6.0,84,0.03,,BKN040,0.04,162.00,VWS V14.01,2013-02-25 20:40:00,
2013-02-25 15:45:00,77.0,72.2,29.79,SE,145,4.0,4.0,85,0.03,,BKN040,0.04,209.00,VWS V14.01,2013-02-25 20:45:00,
2013-02-25 15:50:00,76.9,72.1,29.79,SE,129,3.0,5.0,85,0.03,,BKN040,0.04,167.00,VWS V14.01,2013-02-25 20:50:00,
2013-02-25 15:55:00,77.0,72.5,29.78,East,98,1.0,5.0,86,0.03,,BKN040,0.04,248.00,VWS V14.01,2013-02-25 20:55:00,
2013-02-25 16:00:00,77.3,72.8,29.78,East,92,0.0,1.0,86,0.03,,BKN040,0.04,243.00,VWS V14.01,2013-02-25 21:00:00,
2013-02-25 16:05:00,77.5,72.6,29.78,SE,125,5.0,6.0,85,0.03,,BKN040,0.04,239.00,VWS V14.01,2013-02-25 21:05:00,
2013-02-25 16:10:00,78.2,73.0,29.78,ESE,107,0.0,4.0,84,0.03,,BKN040,0.04,483.00,VWS V14.01,2013-02-25 21:10:00,
2013-02-25 16:15:00,78.7,73.1,29.78,ESE,107,1.0,4.0,83,0.02,,BKN040,0.04,221.00,VWS V14.01,2013-02-25 21:15:00,
2013-02-25 16:20:00,78.9,73.3,29.78,ESE,107,0.0,2.0,83,0.02,,BKN040,0.04,264.00,VWS V14.01,2013-02-25 21:20:00,
2013-02-25 16:25:00,79.4,73.4,29.78,ESE,109,0.0,3.0,82,0.02,,BKN040,0.04,243.00,VWS V14.01,2013-02-25 21:25:00,
2013-02-25 16:30:00,80.0,71.8,29.78,SE,141,2.0,12.0,76,0.02,,BKN040,0.04,469.00,VWS V14.01,2013-02-25 21:30:00,
2013-02-25 16:35:00,81.0,71.5,29.77,SSW,193,8.0,10.0,73,0.01,,BKN040,0.04,436.00,VWS V14.01,2013-02-25 21:35:00,
2013-02-25 16:40:00,81.3,70.6,29.78,SSE,161,6.0,9.0,70,0.00,,BKN040,0.04,352.00,VWS V14.01,2013-02-25 21:40:00,
2013-02-25 16:45:00,81.1,70.0,29.78,SE,140,3.0,15.0,69,0.00,,BKN040,0.04,341.00,VWS V14.01,2013-02-25 21:45:00,
2013-02-25 16:50:00,81.2,69.6,29.78,SE,128,6.0,12.0,68,0.00,,BKN040,0.04,350.00,VWS V14.01,2013-02-25 21:50:00,
2013-02-25 16:55:00,81.2,69.6,29.78,South,191,8.0,14.0,68,0.00,,BKN040,0.04,318.00,VWS V14.01,2013-02-25 21:55:00,
2013-02-25 17:00:00,81.1,71.2,29.78,SSE,156,5.0,13.0,72,0.00,,BKN040,0.04,302.00,VWS V14.01,2013-02-25 22:00:00,
2013-02-25 17:05:00,80.6,71.6,29.78,SE,146,3.0,11.0,74,0.00,,BKN040,0.04,239.00,VWS V14.01,2013-02-25 22:05:00,
2013-02-25 17:10:00,80.3,71.7,29.79,ESE,122,4.0,9.0,75,0.00,,SCT040,0.04,197.00,VWS V14.01,2013-02-25 22:10:00,
2013-02-25 17:15:00,80.0,71.4,29.79,ESE,114,4.0,11.0,75,0.00,,SCT040,0.04,281.00,VWS V14.01,2013-02-25 22:15:00,
2013-02-25 17:20:00,79.9,71.3,29.79,SE,131,4.0,14.0,75,0.00,,SCT040,0.04,250.00,VWS V14.01,2013-02-25 22:20:00,
2013-02-25 17:25:00,79.6,71.0,29.78,SE,132,6.0,15.0,75,0.00,,SCT040,0.04,199.00,VWS V14.01,2013-02-25 22:25:00,
2013-02-25 17:30:00,79.4,70.8,29.79,ESE,121,5.0,13.0,75,0.00,,SCT040,0.04,137.00,VWS V14.01,2013-02-25 22:30:00,
2013-02-25 17:35:00,79.2,71.0,29.79,SSE,150,9.0,13.0,76,0.00,,SCT040,0.04,123.00,VWS V14.01,2013-02-25 22:35:00,
2013-02-25 17:40:00,79.0,70.8,29.79,SE,141,1.0,12.0,76,0.00,,SCT040,0.04,134.00,VWS V14.01,2013-02-25 22:40:00,
2013-02-25 17:45:00,78.9,70.7,29.79,SE,135,6.0,10.0,76,0.00,,SCT040,0.04,123.00,VWS V14.01,2013-02-25 22:45:00,
2013-02-25 17:50:00,78.9,70.7,29.79,SE,128,5.0,12.0,76,0.00,,SCT040,0.04,111.00,VWS V14.01,2013-02-25 22:50:00,
2013-02-25 17:55:00,78.8,70.6,29.79,SE,128,4.0,9.0,76,0.00,,SCT040,0.04,102.00,VWS V14.01,2013-02-25 22:55:00,
2013-02-25 18:00:00,78.7,70.9,29.79,SE,137,4.0,8.0,77,0.00,,FEW040,0.04,95.00,VWS V14.01,2013-02-25 23:00:00,
2013-02-25 18:05:00,78.6,70.8,29.79,SSE,149,2.0,7.0,77,0.00,,FEW040,0.04,91.00,VWS V14.01,2013-02-25 23:05:00,
2013-02-25 18:10:00,78.4,70.6,29.79,ESE,121,6.0,11.0,77,0.00,,FEW040,0.04,86.00,VWS V14.01,2013-02-25 23:10:00,
2013-02-25 18:15:00,78.2,70.4,29.79,ESE,116,6.0,9.0,77,0.00,,FEW040,0.04,83.00,VWS V14.01,2013-02-25 23:15:00,
2013-02-25 18:20:00,78.0,70.2,29.79,SE,138,4.0,7.0,77,0.00,,FEW040,0.04,79.00,VWS V14.01,2013-02-25 23:20:00,
2013-02-25 18:25:00,77.8,70.4,29.80,ESE,118,2.0,7.0,78,0.00,,FEW040,0.04,77.00,VWS V14.01,2013-02-25 23:25:00,
2013-02-25 18:30:00,77.6,70.6,29.80,SE,128,2.0,10.0,79,0.00,,FEW040,0.04,76.00,VWS V14.01,2013-02-25 23:30:00,
2013-02-25 18:35:00,77.3,70.3,29.80,SE,131,0.0,6.0,79,0.00,,FEW040,0.04,74.00,VWS V14.01,2013-02-25 23:35:00,
2013-02-25 18:40:00,77.0,70.4,29.79,SE,144,4.0,7.0,80,0.00,,FEW040,0.04,74.00,VWS V14.01,2013-02-25 23:40:00,
2013-02-25 18:45:00,76.8,70.5,29.80,SSE,153,4.0,6.0,81,0.00,,FEW040,0.04,74.00,VWS V14.01,2013-02-25 23:45:00,
2013-02-25 18:50:00,76.7,70.8,29.80,SE,134,6.0,9.0,82,0.00,,FEW040,0.04,74.00,VWS V14.01,2013-02-25 23:50:00,
2013-02-25 18:55:00,76.6,70.7,29.80,ESE,108,1.0,11.0,82,0.00,,FEW040,0.04,74.00,VWS V14.01,2013-02-25 23:55:00,
2013-02-25 19:00:00,76.5,71.0,29.80,ESE,115,4.0,7.0,83,0.00,,FEW040,0.04,74.00,VWS V14.01,2013-02-26 00:00:00,
2013-02-25 19:05:00,76.3,70.8,29.80,SE,134,4.0,7.0,83,0.00,,FEW040,0.04,74.00,VWS V14.01,2013-02-26 00:05:00,
2013-02-25 19:10:00,76.2,70.7,29.80,SE,140,4.0,9.0,83,0.00,,FEW040,0.04,74.00,VWS V14.01,2013-02-26 00:10:00,
2013-02-25 19:15:00,76.1,70.6,29.79,SSE,149,2.0,7.0,83,0.00,,FEW040,0.04,74.00,VWS V14.01,2013-02-26 00:15:00,
2013-02-25 19:20:00,75.9,70.7,29.80,ESE,119,1.0,7.0,84,0.00,,FEW040,0.04,74.00,VWS V14.01,2013-02-26 00:20:00,
2013-02-25 19:25:00,75.8,70.6,29.81,SE,141,3.0,6.0,84,0.00,,FEW040,0.04,74.00,VWS V14.01,2013-02-26 00:25:00,
2013-02-25 19:30:00,75.7,70.9,29.81,ESE,106,1.0,5.0,85,0.00,,FEW040,0.04,74.00,VWS V14.01,2013-02-26 00:30:00,
2013-02-25 19:35:00,75.6,70.8,29.81,SE,144,1.0,4.0,85,0.00,,FEW040,0.04,74.00,VWS V14.01,2013-02-26 00:35:00,
2013-02-25 19:40:00,75.5,70.7,29.81,SE,127,3.0,7.0,85,0.00,,FEW040,0.04,74.00,VWS V14.01,2013-02-26 00:40:00,
2013-02-25 19:45:00,75.4,70.6,29.81,SE,140,4.0,5.0,85,0.00,,FEW040,0.04,74.00,VWS V14.01,2013-02-26 00:45:00,
2013-02-25 19:50:00,75.3,70.8,29.81,ESE,120,3.0,5.0,86,0.00,,FEW040,0.04,74.00,VWS V14.01,2013-02-26 00:50:00,
2013-02-25 19:55:00,75.1,70.6,29.81,SE,136,2.0,3.0,86,0.00,,FEW040,0.04,74.00,VWS V14.01,2013-02-26 00:55:00,
2013-02-25 20:00:00,75.1,70.6,29.81,SE,137,0.0,4.0,86,0.00,,FEW040,0.04,74.00,VWS V14.01,2013-02-26 01:00:00,
2013-02-25 20:05:00,75.0,70.9,29.81,SE,142,3.0,4.0,87,0.00,,FEW040,0.04,74.00,VWS V14.01,2013-02-26 01:05:00,
2013-02-25 20:10:00,75.0,70.9,29.82,SE,141,3.0,5.0,87,0.00,,FEW040,0.04,74.00,VWS V14.01,2013-02-26 01:10:00,
2013-02-25 20:15:00,74.9,70.8,29.82,SE,136,1.0,5.0,87,0.00,,FEW040,0.04,74.00,VWS V14.01,2013-02-26 01:15:00,
2013-02-25 20:20:00,74.8,70.7,29.82,SE,144,3.0,4.0,87,0.00,,FEW040,0.04,74.00,VWS V14.01,2013-02-26 01:20:00,
2013-02-25 20:25:00,74.7,70.6,29.82,SE,130,2.0,4.0,87,0.00,,FEW040,0.04,74.00,VWS V14.01,2013-02-26 01:25:00,
2013-02-25 20:30:00,74.6,70.5,29.82,SE,130,0.0,3.0,87,0.00,,FEW040,0.04,74.00,VWS V14.01,2013-02-26 01:30:00,
2013-02-25 20:35:00,74.5,70.4,29.82,SE,130,0.0,4.0,87,0.00,,FEW040,0.04,74.00,VWS V14.01,2013-02-26 01:35:00,
2013-02-25 20:40:00,74.4,70.3,29.82,SE,130,4.0,5.0,87,0.00,,FEW040,0.04,74.00,VWS V14.01,2013-02-26 01:40:00,
2013-02-25 20:45:00,74.3,70.2,29.82,SE,136,2.0,4.0,87,0.00,,FEW040,0.04,74.00,VWS V14.01,2013-02-26 01:45:00,
2013-02-25 20:50:00,74.2,70.4,29.82,SE,136,1.0,4.0,88,0.00,,FEW040,0.04,74.00,VWS V14.01,2013-02-26 01:50:00,
2013-02-25 20:55:00,74.2,70.4,29.82,SE,138,0.0,4.0,88,0.00,,FEW040,0.04,74.00,VWS V14.01,2013-02-26 01:55:00,
2013-02-25 21:00:00,74.2,70.4,29.82,SE,135,2.0,3.0,88,0.00,,SCT040,0.04,74.00,VWS V14.01,2013-02-26 02:00:00,
2013-02-25 21:05:00,74.1,70.3,29.83,SE,136,1.0,3.0,88,0.00,,SCT040,0.04,74.00,VWS V14.01,2013-02-26 02:05:00,
2013-02-25 21:10:00,74.1,70.3,29.83,SE,136,2.0,3.0,88,0.00,,SCT040,0.04,74.00,VWS V14.01,2013-02-26 02:10:00,
2013-02-25 21:15:00,74.1,70.7,29.83,SE,136,0.0,2.0,89,0.00,,SCT040,0.04,74.00,VWS V14.01,2013-02-26 02:15:00,
2013-02-25 21:20:00,74.2,70.8,29.83,SE,136,3.0,4.0,89,0.00,,SCT040,0.04,74.00,VWS V14.01,2013-02-26 02:20:00,
2013-02-25 21:25:00,74.1,70.7,29.82,ESE,116,2.0,3.0,89,0.00,,SCT040,0.04,74.00,VWS V14.01,2013-02-26 02:25:00,
2013-02-25 21:30:00,74.0,70.6,29.82,SE,124,1.0,4.0,89,0.00,,SCT040,0.04,74.00,VWS V14.01,2013-02-26 02:30:00,
2013-02-25 21:35:00,73.9,70.5,29.82,ESE,117,3.0,4.0,89,0.00,,SCT040,0.04,74.00,VWS V14.01,2013-02-26 02:35:00,
2013-02-25 21:40:00,73.9,70.5,29.82,SE,134,1.0,6.0,89,0.00,,SCT040,0.04,74.00,VWS V14.01,2013-02-26 02:40:00,
2013-02-25 21:45:00,73.8,70.4,29.82,SE,133,1.0,6.0,89,0.00,,SCT040,0.04,74.00,VWS V14.01,2013-02-26 02:45:00,
2013-02-25 21:50:00,73.8,70.4,29.82,SSE,148,3.0,4.0,89,0.00,,SCT040,0.04,74.00,VWS V14.01,2013-02-26 02:50:00,
2013-02-25 21:55:00,73.8,70.4,29.82,SE,127,2.0,7.0,89,0.00,,SCT040,0.04,74.00,VWS V14.01,2013-02-26 02:55:00,
2013-02-25 22:00:00,73.8,70.4,29.82,SE,144,2.0,5.0,89,0.00,,SCT040,0.04,74.00,VWS V14.01,2013-02-26 03:00:00,
2013-02-25 22:05:00,73.8,70.7,29.82,SE,127,2.0,9.0,90,0.00,,SCT040,0.04,74.00,VWS V14.01,2013-02-26 03:05:00,
2013-02-25 22:10:00,73.8,70.7,29.82,SE,132,2.0,5.0,90,0.00,,SCT040,0.04,74.00,VWS V14.01,2013-02-26 03:10:00,
2013-02-25 22:15:00,73.8,70.7,29.82,SE,132,3.0,6.0,90,0.00,,SCT040,0.04,74.00,VWS V14.01,2013-02-26 03:15:00,
2013-02-25 22:20:00,73.9,70.8,29.82,SE,138,2.0,3.0,90,0.00,,SCT040,0.04,74.00,VWS V14.01,2013-02-26 03:20:00,
2013-02-25 22:25:00,73.8,70.7,29.82,SE,134,4.0,5.0,90,0.00,,SCT040,0.04,74.00,VWS V14.01,2013-02-26 03:25:00,
2013-02-25 22:30:00,73.9,70.8,29.82,SE,126,2.0,5.0,90,0.00,,SCT040,0.04,74.00,VWS V14.01,2013-02-26 03:30:00,
2013-02-25 22:35:00,73.9,70.8,29.82,ESE,117,1.0,6.0,90,0.00,,SCT040,0.04,74.00,VWS V14.01,2013-02-26 03:35:00,
2013-02-25 22:40:00,73.9,70.8,29.82,SE,133,3.0,6.0,90,0.00,,SCT040,0.04,74.00,VWS V14.01,2013-02-26 03:40:00,
2013-02-25 22:45:00,73.9,71.1,29.81,SE,139,5.0,5.0,91,0.00,,SCT040,0.04,74.00,VWS V14.01,2013-02-26 03:45:00,
2013-02-25 22:50:00,74.0,71.2,29.81,SE,129,4.0,9.0,91,0.00,,SCT040,0.04,74.00,VWS V14.01,2013-02-26 03:50:00,
2013-02-25 22:55:00,74.1,71.3,29.81,ESE,121,2.0,4.0,91,0.00,,SCT040,0.04,74.00,VWS V14.01,2013-02-26 03:55:00,
2013-02-25 23:00:00,74.1,71.3,29.82,SE,142,1.0,5.0,91,0.00,,SCT040,0.04,74.00,VWS V14.01,2013-02-26 04:00:00,
2013-02-25 23:05:00,74.1,71.3,29.82,SE,145,4.0,5.0,91,0.00,,SCT040,0.04,74.00,VWS V14.01,2013-02-26 04:05:00,
2013-02-25 23:10:00,74.1,71.3,29.82,SSE,150,5.0,5.0,91,0.00,,SCT040,0.04,74.00,VWS V14.01,2013-02-26 04:10:00,
2013-02-25 23:15:00,74.0,71.2,29.82,SSE,148,0.0,1.0,91,0.00,,SCT040,0.04,74.00,VWS V14.01,2013-02-26 04:15:00,
2013-02-25 23:20:00,74.0,71.2,29.82,SSE,148,1.0,3.0,91,0.00,,SCT040,0.04,74.00,VWS V14.01,2013-02-26 04:20:00,
2013-02-25 23:25:00,74.0,71.2,29.82,SSE,147,0.0,4.0,91,0.00,,SCT040,0.04,74.00,VWS V14.01,2013-02-26 04:25:00,
2013-02-25 23:30:00,74.0,71.5,29.82,SSE,147,1.0,2.0,92,0.00,,SCT040,0.04,74.00,VWS V14.01,2013-02-26 04:30:00,
2013-02-25 23:35:00,74.0,71.5,29.82,SSE,148,1.0,2.0,92,0.00,,SCT040,0.04,74.00,VWS V14.01,2013-02-26 04:35:00,
2013-02-25 23:40:00,74.1,71.6,29.82,SE,140,1.0,5.0,92,0.00,,SCT040,0.04,74.00,VWS V14.01,2013-02-26 04:40:00,
2013-02-25 23:45:00,74.2,71.7,29.82,SE,140,1.0,3.0,92,0.00,,SCT040,0.04,74.00,VWS V14.01,2013-02-26 04:45:00,
2013-02-25 23:50:00,74.2,71.7,29.82,ESE,110,3.0,5.0,92,0.00,,SCT040,0.04,74.00,VWS V14.01,2013-02-26 04:50:00,
2013-02-25 23:55:00,74.2,71.7,29.82,ESE,117,0.0,6.0,92,0.00,,SCT040,0.04,74.00,VWS V14.01,2013-02-26 04:55:00,